Weather History for Ypsilanti, MI

Change the Weather History Date:

Monday, January 7, 2013

  Actual Average Record
Temperature  
Mean Temperature 32 °F -  
Max Temperature 35 °F 30 °F 64 °F (2008)
Min Temperature 30 °F 17 °F -13 °F (2014)
Degree Days  
Heating Degree Days 32    
Moisture  
Dew Point 23 °F    
Average Humidity 67    
Maximum Humidity 72    
Minimum Humidity 61    
Precipitation  
Precipitation 0.00 in - - ()
Sea Level Pressure  
Sea Level Pressure 30.30 in    
Wind  
Wind Speed 10 mph (SW)    
Max Wind Speed 22 mph    
Max Gust Speed 30 mph    
Visibility 9 miles    
Events      
Averages and records for this station are not official NWS values.
T = Trace of Precipitation, MM = Missing Value Source: NWS Daily Summary

Daily Weather History Graph

Daily Weather History Graph

Search for Another Location

Airport:

Trip Planner

Search our weather history database for the weather conditions in past years. The results will help you decide how hot, cold, wet, or windy it might be!

Date:

Astronomy

Jan. 07, 2013 Rise Set
Actual Time 8:02 AM EST 5:18 PM EST
Civil Twilight 7:31 AM EST 5:50 PM EST
Nautical Twilight 6:56 AM EST 6:25 PM EST
Astronomical Twilight 6:22 AM EST 6:58 PM EST
Moon 3:24 AM EST (1/7) 1:29 PM EST (1/7)
Length of Visible Light 10h 18m
Length of Day
9h 15m
Waning Crescent, 23% of the Moon is Illuminated
Jan 7
Waning Crescent
Jan 11
New
Jan 18
First Quarter
Jan 26
Full
Feb 3
Last Quarter

Hourly Weather History & Observations

Time (EST) Temp. Windchill Dew Point Humidity Pressure Visibility Wind Dir Wind Speed Gust Speed Precip Events Conditions
12:53 AM 34.0 °F 29.8 °F 25.0 °F 70% 30.28 in 9.0 mi WNW 4.6 mph - N/A   Overcast
1:53 AM 34.0 °F 27.2 °F 25.0 °F 70% 30.30 in 10.0 mi WNW 8.1 mph - N/A   Overcast
2:53 AM 33.1 °F 28.7 °F 24.1 °F 70% 30.32 in 10.0 mi WNW 4.6 mph - N/A   Overcast
3:53 AM 33.1 °F 27.7 °F 21.9 °F 64% 30.33 in 10.0 mi WNW 5.8 mph - N/A   Overcast
4:53 AM 33.1 °F 30.0 °F 23.0 °F 66% 30.35 in 10.0 mi SW 3.5 mph - N/A   Overcast
5:53 AM 33.1 °F 28.7 °F 24.1 °F 70% 30.35 in 10.0 mi WSW 4.6 mph - N/A   Overcast
6:53 AM 33.1 °F 25.5 °F 21.0 °F 61% 30.36 in 10.0 mi WSW 9.2 mph - N/A   Overcast
7:32 AM 30.2 °F 23.4 °F 21.2 °F 69% 30.36 in 10.0 mi SW 6.9 mph - N/A   Overcast
7:53 AM 30.9 °F 24.3 °F 19.9 °F 64% 30.38 in 10.0 mi SW 6.9 mph - N/A   Overcast
8:18 AM 30.2 °F 23.4 °F 19.4 °F 64% 30.37 in 10.0 mi SSW 6.9 mph - N/A   Overcast
8:53 AM 30.0 °F 22.4 °F 19.9 °F 66% 30.39 in 10.0 mi SSW 8.1 mph - N/A   Mostly Cloudy
9:53 AM 33.1 °F 23.9 °F 21.9 °F 64% 30.40 in 10.0 mi SW 12.7 mph - N/A   Mostly Cloudy
10:06 AM 33.8 °F 23.9 °F 23.0 °F 65% 30.38 in 10.0 mi SW 15.0 mph - N/A   Partly Cloudy
10:53 AM 34.0 °F 24.6 °F 24.1 °F 67% 30.39 in 8.0 mi SSW 13.8 mph - N/A   Clear
11:53 AM 34.0 °F 24.6 °F 24.1 °F 67% 30.36 in 7.0 mi SW 13.8 mph - N/A   Clear
12:53 PM 35.1 °F 23.5 °F 24.1 °F 64% 30.32 in 8.0 mi SW 21.9 mph 29.9 mph N/A   Clear
2:53 PM 35.1 °F 23.5 °F 24.1 °F 64% 30.26 in 9.0 mi SSW 21.9 mph 29.9 mph N/A   Clear
3:53 PM 35.1 °F 24.1 °F 24.1 °F 64% 30.26 in 9.0 mi SSW 19.6 mph 29.9 mph N/A   Clear
4:53 PM 34.0 °F 22.1 °F 24.1 °F 67% 30.24 in 9.0 mi SSW 21.9 mph 28.8 mph N/A   Clear
6:53 PM 32.0 °F 20.1 °F 23.0 °F 69% 30.23 in 8.0 mi SSW 19.6 mph - N/A   Clear
7:53 PM 32.0 °F 21.6 °F 23.0 °F 69% 30.22 in 8.0 mi SSW 15.0 mph - N/A   Clear
8:53 PM 30.9 °F 19.8 °F 21.9 °F 69% 30.21 in 7.0 mi SSW 16.1 mph - N/A   Clear
9:53 PM 30.9 °F 19.4 °F 21.9 °F 69% 30.18 in 6.0 mi SSW 17.3 mph - N/A   Haze
10:53 PM 30.9 °F 20.2 °F 21.9 °F 69% 30.18 in 6.0 mi SSW 15.0 mph - N/A   Haze
11:53 PM 30.0 °F 20.0 °F 21.9 °F 72% 30.18 in 5.0 mi SW 12.7 mph - N/A   Haze